Regional Weather Roundup
Issued by NWS

Home | Current Version | Previous Version | Graphics & Text | Print | Product List | Glossary On
Versions: 1 2 3 4 5 6 7 8 9 10 11 12 13 14 15 16 17 18 19 20 21 22 23 24 25 26 27 28 29 30 31 32 33 34 35 36 37 38 39 40 41 42 43 44 45 46 47 48 49 50
000
ASUS44 KMEG 291010
RWRTN
TENNESSEE HOURLY STATE WEATHER ROUNDUP
NATIONAL WEATHER SERVICE MEMPHIS TN
500 AM CDT MON AUG 29 2016

TNZ002-004-019-021-049-052-054-088>092-291100-
WEST TENNESSEE

CITY           SKY/WX    TMP DP  RH WIND       PRES   REMARKS
MEMPHIS INTL   PTCLDY    80  71  74 E6        30.05S
NWS MEMPHIS      N/A     76 N/A N/A MISG        N/A
JACKSON        CLEAR     74  73  97 NE5       30.09R
DYERSBURG      CLEAR     73  72  94 MISG      30.08R
UNION CITY     CLEAR     73  73 100 CALM      30.08S
PARIS          CLEAR     72  70  94 E3        30.10S
LEXINGTON      CLEAR     72  72 100 CALM      30.09S
$$

TNZ008-025-027-028-033-062-065-066-291100-
NORTH MIDDLE TENNESSEE

CITY           SKY/WX    TMP DP  RH WIND       PRES   REMARKS
NASHVILLE      CLEAR     73  68  84 CALM      30.12S
CLARKSVILLE    CLEAR     71  68  90 E5        30.11S
COOKEVILLE     CLEAR     70  70 100 CALM      30.14R
CROSSVILLE     CLOUDY    68  67  96 CALM      30.19S
$$

TNZ061-075-076-078-094-096-097-291100-
SOUTH MIDDLE TENNESSEE

CITY           SKY/WX    TMP DP  RH WIND       PRES   REMARKS
FAYETTEVILLE   CLOUDY    73  70  88 E5        30.11S
TULLAHOMA      CLEAR     70  68  94 CALM      30.14S
WINCHESTER     PTCLDY    73  68  83 SE5       30.12F
MCMINNVILLE    CLEAR     70  70 100 CALM      30.14S
COLUMBIA       CLEAR    N/A N/A N/A CALM      30.10S
SHELBYVILLE    CLEAR     70  70 100 CALM      30.13R
$$

TNZ017-018-042-046-047-291100-
NORTHEAST TENNESSEE

CITY           SKY/WX    TMP DP  RH WIND       PRES   REMARKS
TRI CITIES     PTCLDY    66  65  96 CALM      30.19S FOG
ELIZABETHTON   PTCLDY    64  61  88 NE5       30.20S
$$

TNZ012-013-036-069-073-074-291100-
CENTRAL EAST TENNESSEE

CITY           SKY/WX    TMP DP  RH WIND       PRES   REMARKS
KNOXVILLE      PTCLDY    70  67  90 CALM      30.13S
OAK RIDGE      CLEAR     71  68  90 CALM      30.16S
GATLINBURG     CLOUDY    64  64 100 CALM      30.15R VSB 1/2
MORRISTOWN     PTCLDY    70  64  83 NE3       30.16R
$$

TNZ083-085-099-291100-
SOUTHEAST TENNESSEE

CITY           SKY/WX    TMP DP  RH WIND       PRES   REMARKS
CHATTANOOGA    PTCLDY    72  70  93 SW5       30.14R
$$

SKY/WX REPORTED AS FAIR MEANS FEW OR NO CLOUDS BELOW
12 THOUSAND FEET.





USA.gov is the U.S. government's official web portal to all federal, state and local government web resources and services.